Total_Precipitation_Accumulation
0.02 0.03 0.04 0.06 0.08 0.11 0.14 0.16 0.18 0.18 0.20 0.24 0.29 0.33 0.34 0.41 0.59 0.75 0.74 0.66 0.72 0.81 0.90 1.00 1.04 1.06 1.05 0.93 0.82 0.73 0.70 0.73 0.67 0.52 0.43 0.40 0.34 0.25 0.20 0.14 0.10 0.07 0.06
0.02 0.02 0.03 0.04 0.06 0.07 0.09 0.13 0.16 0.18 0.18 0.17 0.19 0.23 0.26 0.33 0.48 0.79 0.96 0.98 0.95 0.88 0.93 1.08 1.16 1.12 1.01 0.94 0.90 0.81 0.76 0.77 0.68 0.53 0.45 0.39 0.34 0.30 0.25 0.19 0.12 0.08 0.06
0.01 0.02 0.02 0.02 0.04 0.05 0.07 0.10 0.13 0.16 0.18 0.17 0.18 0.23 0.28 0.29 0.35 0.55 0.77 0.89 0.92 0.88 0.93 0.98 1.00 1.06 1.03 0.94 0.85 0.80 0.76 0.81 0.72 0.55 0.49 0.43 0.38 0.34 0.28 0.22 0.16 0.12 0.07
0.01 0.01 0.02 0.02 0.03 0.05 0.06 0.09 0.12 0.15 0.16 0.19 0.23 0.28 0.29 0.25 0.26 0.39 0.53 0.63 0.68 0.73 0.79 0.84 0.87 0.90 0.95 0.98 0.91 0.83 0.81 0.79 0.71 0.59 0.51 0.52 0.44 0.38 0.30 0.24 0.19 0.13 0.08
0.02 0.04 0.04 0.04 0.04 0.05 0.06 0.09 0.10 0.11 0.12 0.18 0.25 0.27 0.25 0.23 0.27 0.39 0.43 0.39 0.43 0.48 0.51 0.52 0.64 0.80 0.90 0.95 0.91 0.86 0.84 0.78 0.73 0.67 0.58 0.53 0.48 0.41 0.32 0.22 0.16 0.13 0.09
0.08 0.10 0.08 0.09 0.09 0.09 0.10 0.11 0.11 0.13 0.16 0.19 0.21 0.24 0.24 0.20 0.25 0.29 0.27 0.25 0.27 0.31 0.33 0.31 0.32 0.46 0.65 0.78 0.81 0.80 0.81 0.79 0.76 0.70 0.67 0.62 0.49 0.38 0.29 0.21 0.14 0.10 0.10
0.07 0.12 0.13 0.13 0.13 0.10 0.10 0.11 0.14 0.18 0.22 0.24 0.25 0.27 0.27 0.27 0.22 0.18 0.15 0.16 0.19 0.25 0.27 0.26 0.21 0.21 0.33 0.46 0.57 0.63 0.66 0.63 0.65 0.71 0.72 0.66 0.59 0.45 0.31 0.24 0.20 0.14 0.10
0.05 0.12 0.16 0.18 0.17 0.15 0.16 0.19 0.22 0.25 0.28 0.30 0.31 0.34 0.38 0.37 0.26 0.18 0.14 0.13 0.17 0.23 0.25 0.23 0.20 0.20 0.22 0.27 0.36 0.45 0.51 0.51 0.48 0.50 0.57 0.64 0.67 0.57 0.40 0.32 0.26 0.20 0.13
0.08 0.13 0.18 0.25 0.26 0.25 0.27 0.30 0.34 0.36 0.35 0.35 0.37 0.40 0.45 0.49 0.37 0.24 0.18 0.17 0.21 0.24 0.25 0.24 0.22 0.18 0.17 0.18 0.25 0.30 0.36 0.44 0.46 0.46 0.47 0.51 0.56 0.57 0.49 0.34 0.24 0.16 0.11
0.13 0.17 0.23 0.31 0.36 0.35 0.36 0.40 0.42 0.45 0.43 0.41 0.39 0.41 0.47 0.56 0.47 0.29 0.22 0.23 0.30 0.31 0.33 0.30 0.24 0.20 0.16 0.12 0.17 0.23 0.26 0.29 0.35 0.39 0.41 0.40 0.38 0.40 0.41 0.32 0.21 0.14 0.09
0.22 0.25 0.29 0.36 0.42 0.42 0.43 0.46 0.48 0.48 0.49 0.49 0.48 0.46 0.50 0.57 0.53 0.34 0.27 0.31 0.39 0.43 0.38 0.35 0.29 0.20 0.15 0.11 0.12 0.18 0.21 0.25 0.28 0.32 0.39 0.41 0.40 0.37 0.33 0.27 0.23 0.15 0.08
0.32 0.32 0.36 0.42 0.44 0.43 0.53 0.59 0.63 0.64 0.61 0.58 0.62 0.59 0.56 0.57 0.53 0.41 0.29 0.28 0.40 0.53 0.53 0.45 0.38 0.28 0.17 0.14 0.13 0.13 0.16 0.20 0.30 0.31 0.34 0.39 0.39 0.38 0.34 0.29 0.23 0.18 0.11
0.31 0.33 0.38 0.47 0.53 0.56 0.62 0.66 0.75 0.78 0.75 0.70 0.71 0.75 0.70 0.66 0.62 0.46 0.34 0.27 0.35 0.51 0.63 0.59 0.47 0.36 0.27 0.20 0.19 0.18 0.15 0.16 0.23 0.30 0.29 0.29 0.29 0.31 0.36 0.36 0.32 0.22 0.13
0.36 0.36 0.40 0.47 0.54 0.65 0.75 0.74 0.76 0.79 0.81 0.80 0.77 0.74 0.74 0.73 0.75 0.62 0.46 0.34 0.37 0.51 0.62 0.63 0.52 0.44 0.38 0.32 0.28 0.25 0.20 0.17 0.19 0.26 0.28 0.29 0.31 0.33 0.34 0.34 0.30 0.23 0.14
0.39 0.38 0.42 0.48 0.55 0.67 0.80 0.82 0.73 0.73 0.76 0.73 0.68 0.65 0.66 0.67 0.72 0.67 0.57 0.54 0.56 0.64 0.74 0.81 0.71 0.59 0.52 0.46 0.39 0.34 0.30 0.27 0.24 0.26 0.33 0.34 0.35 0.34 0.31 0.26 0.23 0.18 0.13
0.43 0.40 0.43 0.47 0.55 0.65 0.78 0.83 0.68 0.55 0.53 0.53 0.47 0.41 0.40 0.42 0.52 0.56 0.52 0.50 0.55 0.64 0.79 0.91 0.81 0.68 0.58 0.52 0.47 0.42 0.39 0.35 0.32 0.30 0.31 0.35 0.34 0.33 0.30 0.24 0.19 0.15 0.11
0.51 0.46 0.47 0.50 0.55 0.60 0.69 0.80 0.83 0.66 0.47 0.41 0.32 0.24 0.22 0.25 0.38 0.49 0.56 0.55 0.54 0.57 0.68 0.80 0.75 0.67 0.60 0.56 0.51 0.45 0.41 0.39 0.39 0.37 0.35 0.34 0.35 0.32 0.27 0.22 0.18 0.14 0.11
0.69 0.58 0.50 0.50 0.56 0.61 0.66 0.73 0.82 0.85 0.76 0.56 0.34 0.19 0.17 0.21 0.32 0.47 0.59 0.58 0.60 0.57 0.60 0.67 0.66 0.62 0.58 0.57 0.54 0.51 0.45 0.46 0.46 0.45 0.42 0.37 0.36 0.33 0.27 0.21 0.17 0.13 0.09
0.62 0.66 0.58 0.52 0.57 0.63 0.67 0.70 0.77 0.82 0.87 0.83 0.57 0.29 0.19 0.24 0.35 0.50 0.60 0.59 0.64 0.59 0.56 0.58 0.59 0.56 0.55 0.55 0.55 0.54 0.52 0.50 0.48 0.48 0.48 0.42 0.37 0.34 0.27 0.20 0.18 0.16 0.10
0.47 0.46 0.45 0.53 0.58 0.64 0.69 0.70 0.74 0.81 0.84 0.83 0.68 0.42 0.24 0.24 0.31 0.46 0.56 0.60 0.62 0.58 0.54 0.51 0.52 0.52 0.51 0.51 0.51 0.52 0.54 0.53 0.50 0.47 0.49 0.47 0.40 0.34 0.28 0.21 0.18 0.15 0.10
0.48 0.42 0.31 0.42 0.56 0.61 0.67 0.71 0.71 0.74 0.78 0.76 0.63 0.38 0.23 0.24 0.33 0.43 0.51 0.55 0.52 0.52 0.50 0.48 0.47 0.44 0.42 0.43 0.43 0.44 0.47 0.49 0.46 0.44 0.45 0.46 0.42 0.35 0.29 0.23 0.18 0.15 0.11
0.50 0.49 0.36 0.39 0.51 0.56 0.59 0.70 0.71 0.69 0.68 0.67 0.55 0.33 0.24 0.27 0.36 0.44 0.53 0.52 0.47 0.46 0.43 0.42 0.41 0.37 0.33 0.32 0.34 0.36 0.40 0.41 0.39 0.39 0.39 0.40 0.39 0.34 0.28 0.24 0.20 0.17 0.14
0.43 0.48 0.39 0.37 0.46 0.43 0.48 0.62 0.65 0.62 0.61 0.60 0.46 0.33 0.30 0.38 0.44 0.48 0.52 0.50 0.45 0.41 0.37 0.36 0.33 0.29 0.25 0.25 0.26 0.27 0.31 0.32 0.30 0.30 0.31 0.32 0.34 0.32 0.26 0.22 0.19 0.16 0.14
0.37 0.45 0.37 0.30 0.33 0.40 0.46 0.53 0.57 0.53 0.51 0.49 0.40 0.30 0.29 0.37 0.41 0.42 0.45 0.42 0.37 0.35 0.32 0.28 0.25 0.21 0.21 0.23 0.24 0.23 0.25 0.27 0.26 0.25 0.25 0.25 0.27 0.26 0.23 0.21 0.18 0.14 0.12
0.38 0.44 0.35 0.25 0.25 0.30 0.38 0.46 0.47 0.44 0.41 0.38 0.32 0.28 0.27 0.30 0.31 0.31 0.33 0.31 0.29 0.28 0.25 0.22 0.22 0.21 0.20 0.19 0.19 0.18 0.21 0.23 0.23 0.21 0.22 0.22 0.23 0.23 0.21 0.20 0.18 0.15 0.12
0.33 0.37 0.32 0.21 0.17 0.21 0.29 0.35 0.35 0.32 0.32 0.28 0.26 0.24 0.24 0.24 0.23 0.22 0.22 0.20 0.19 0.20 0.19 0.18 0.17 0.15 0.16 0.15 0.14 0.13 0.15 0.16 0.17 0.18 0.19 0.19 0.21 0.21 0.20 0.19 0.16 0.13 0.11